SL-12 DEB

基本信息
目录编号:
41641
目录名称:
SL-12 DEB
国际标识:
2008-067M
轨道中心:
EARTH
物体状态:
在轨
发射日期:
2008-12-25 UTC
轨道信息
数据来源: 国际轨道数据
星历时间: 2026-07-11T16:43:01+0800
半长轴: 15989.216km
偏心率: 0.5542422
轨道倾角: 65.066°
近地点辐角: 283.624°
升交点赤经: 126.737°
平近点角: 23.006°
近地点: 749.18km
远地点: 18472.978km
周期: 335.352分钟
每日圈数: 4.294
详细信息
发射场:
TTMTR
轨道高度:
LEO
数据来源:
AOE Integration Group
参考系:
TEME
时间系统:
UTC
历元类型:
SGP4
2D轨道图
3D轨道图
轨道高度分析图
轨道倾角分析图
轨道综合分析图
查看轨道综合分析图